KO6TH-15 Weather Reports


time (UTC)temp
C
wind
direction
speed
KPH
gust
KPH
rain 1hr
cm
rain 24hr
cm
rain mn
cm
humidity
%
barometer
mb
20260505041420 9 0 0.0 0.0 0.76 2.54 2.54 99
20260505040350 9 0 0.0 0.0 0.74 2.44 2.44 99
20260505035350 9 0 0.0 0.0 0.69 2.21 2.21 99
20260505034350 9 0 0.0 0.0 0.61 2.06 2.06 99
20260505033320 9 0 0.0 0.0 0.61 1.98 1.98 99
20260505032320 9 0 0.0 0.0 0.58 1.91 1.91 99
20260505031250 9 0 0.0 0.0 0.51 1.78 1.78 99
20260505030220 9 0 0.0 0.0 0.46 1.68 1.68 99
20260505025150 9 0 0.0 0.0 0.33 1.52 1.52 99
20260505024150 9 0 3.2 0.0 0.30 1.45 1.45 99
20260505023120 10 0 0.0 0.0 0.23 1.37 1.37 99
20260505022120 10 0 0.0 0.0 0.23 1.30 1.30 99
20260505021050 10 0 3.2 0.0 0.20 1.27 1.27 99
20260505020050 10 0 1.6 0.0 0.15 1.22 1.22 99
20260505015050 10 0 0.0 0.0 0.18 1.19 1.19 99
20260505014050 10 0 4.8 0.0 0.15 1.14 1.14 99
20260505013020 10 0 0.0 0.0 0.23 1.12 1.12 99
20260505011950 10 0 3.2 0.0 0.23 1.07 1.07 99
20260505010920 10 0 1.6 0.0 0.25 1.04 1.04 99
20260505005920 10 0 3.2 0.0 0.25 1.04 1.04 99
20260505004850 10 0 1.6 0.0 0.23 0.99 0.99 99
20260505003820 10 0 1.6 0.0 0.15 0.91 0.91 99
20260505002750 10 0 1.6 0.0 0.18 0.89 0.89 99
20260505001750 10 0 1.6 0.0 0.15 0.81 0.81 99
20260505000720 10 0 1.6 0.0 0.15 0.76 0.76 99
20260504235720 10 0 0.0 0.0 0.18 0.76 0.76 99
20260504234650 10 0 1.6 0.0 0.20 0.76 0.76 99
20260504233620 10 0 1.6 0.0 0.23 0.74 0.74 99
20260504232550 10 0 0.0 0.0 0.23 0.69 0.69 99
20260504231520 10 0 3.2 0.0 0.23 0.61 0.61 99
20260504230450 10 0 3.2 0.0 0.28 0.61 0.61 99
20260504225420 10 0 3.2 0.0 0.28 0.58 0.58 99
20260504224420 10 0 8.0 0.0 0.23 0.53 0.53 99
20260504223350 10 0 3.2 0.0 0.23 0.46 0.46 99
20260504222320 10 0 3.2 0.0 0.23 0.38 0.38 99
20260504221320 11 0 1.6 0.0 0.23 0.36 0.36 99
20260504220320 11 0 6.4 0.0 0.23 0.30 0.30 99
20260504215250 11 0 3.2 0.0 0.20 0.30 0.30 99
20260504214250 11 0 0.0 0.0 0.23 0.28 0.28 99
20260504213220 11 0 3.2 0.0 0.15 0.23 0.23 99
20260504212150 11 0 6.4 0.0 0.15 0.15 0.15 98
20260504211120 11 0 0.0 0.0 0.13 0.13 0.13 98
20260504210120 11 0 1.6 0.0 0.08 0.08 0.08 97
20260504205050 11 0 1.6 0.0 0.08 0.08 0.08 96
20260504204050 11 0 3.2 0.0 0.05 0.05 0.05 95
20260504203050 11 0 4.8 0.0 0.00 0.00 0.00 95
20260504202020 12 0 4.8 0.0 0.00 0.00 0.00 93
20260504201020 12 0 3.2 0.0 0.00 0.00 0.00 91
20260504195950 12 0 3.2 0.0 0.00 0.00 0.00 89
20260504194920 12 0 4.8 0.0 0.00 0.00 0.00 90
20260504193920 12 0 6.4 0.0 0.00 0.00 0.00 86
20260504192850 12 0 4.8 0.0 0.00 0.00 0.00 84
20260504191820 12 0 1.6 0.0 0.00 0.00 0.00 86
20260504190750 12 0 0.0 0.0 0.00 0.00 0.00 87
20260504185720 12 0 0.0 0.0 0.00 0.00 0.00 88
20260504184650 12 0 6.4 0.0 0.00 0.00 0.00 89
20260504183620 13 0 6.4 0.0 0.00 0.00 0.00 87
20260504182550 14 0 3.2 0.0 0.00 0.00 0.00 83
20260504181520 13 0 6.4 0.0 0.00 0.00 0.00 79
20260504180520 13 0 3.2 0.0 0.00 0.00 0.00 79
20260504175450 13 0 8.0 0.0 0.00 0.00 0.00 77
20260504174420 14 0 1.6 0.0 0.00 0.00 0.00 77
20260504173420 14 0 3.2 0.0 0.00 0.00 0.00 76
20260504172350 14 0 0.0 0.0 0.00 0.00 0.00 77
20260504171350 13 0 3.2 0.0 0.00 0.00 0.00 78
20260504170350 13 0 1.6 0.0 0.00 0.00 0.00 81
20260504160250 12 0 3.2 0.0 0.00 0.00 0.00 82
20260504151150 12 0 3.2 0.0 0.00 0.00 0.00 83
20260504150120 12 0 3.2 0.0 0.00 0.00 0.00 85
20260504141020 10 0 1.6 0.0 0.00 0.00 0.00 92
20260504110620 9 0 1.6 0.0 0.00 0.00 0.00 95
20260504100450 10 0 0.0 0.0 0.00 0.00 0.00 93
20260504081220 10 0 1.6 0.0 0.00 0.00 0.00 91
20260504080220 10 0 1.6 0.0 0.00 0.00 0.00 90
20260504070120 11 0 1.6 0.0 0.00 0.00 0.00 87
20260504045820 13 0 0.0 0.0 0.00 0.00 0.00 80
20260504044750 13 0 1.6 0.0 0.00 0.00 0.00 79
20260504043750 13 0 1.6 0.0 0.00 0.00 0.00 78